DUZEAR1 KMWK-KINT

Flight info

Callsign DUZEAR1
Flight time 0h 26m
Altitude 9000
Route KMWK/36 N0256F090 DCT FUZIL DCT HOCUS DCT AREVE DCT HENBY HENBY1 KINT/33
Aircraft PC12/L-SDE2FGIRWY/SB1

Departure

Time 2026-05-07 19:44
Airport Mount Airy Surry County Airport (KMWK)

Arrival

Time 2026-05-07 20:10
Airport Smith Reynolds Airport (KINT)
Time Latitude Longitude Altitude Speed Heading
2026-05-07 19:33 36.45732 -80.55389 1244 ft 0 kts 171°
2026-05-07 19:42 36.45704 -80.55361 1244 ft 13 kts 135°
2026-05-07 19:42 36.45574 -80.55327 1253 ft 19 kts 174°
2026-05-07 19:42 36.45440 -80.55307 1248 ft 13 kts 170°
2026-05-07 19:43 36.45391 -80.55262 1252 ft 8 kts 103°
2026-05-07 19:43 36.45453 -80.55228 1255 ft 18 kts 354°
2026-05-07 19:43 36.45783 -80.55276 1243 ft 81 kts 353°
2026-05-07 19:43 36.46503 -80.55382 1424 ft 120 kts 353°
2026-05-07 19:44 36.47354 -80.55527 2048 ft 123 kts 353°
2026-05-07 19:44 36.48235 -80.55647 2729 ft 131 kts 355°
2026-05-07 19:44 36.49132 -80.55767 3561 ft 128 kts 357°
2026-05-07 19:44 36.50049 -80.55896 4247 ft 141 kts 355°
2026-05-07 19:45 36.51040 -80.55923 4987 ft 145 kts 12°
2026-05-07 19:45 36.51962 -80.55398 5733 ft 149 kts 37°
2026-05-07 19:45 36.52669 -80.54453 6531 ft 150 kts 48°
2026-05-07 19:45 36.53357 -80.53468 7319 ft 152 kts 46°
2026-05-07 19:46 36.54064 -80.52455 8047 ft 158 kts 46°
2026-05-07 19:46 36.54800 -80.51386 8669 ft 170 kts 45°
2026-05-07 19:46 36.55600 -80.50241 8990 ft 183 kts 47°
2026-05-07 19:46 36.56530 -80.48899 9030 ft 225 kts 48°
2026-05-07 19:47 36.57608 -80.47343 9028 ft 246 kts 48°
2026-05-07 19:47 36.58749 -80.45683 9021 ft 258 kts 48°
2026-05-07 19:47 36.59943 -80.43959 9020 ft 266 kts 48°
2026-05-07 19:47 36.61157 -80.42196 9023 ft 269 kts 49°
2026-05-07 19:48 36.62357 -80.40407 9018 ft 271 kts 53°
2026-05-07 19:48 36.63236 -80.38328 9010 ft 269 kts 66°
2026-05-07 19:48 36.64014 -80.36194 9021 ft 271 kts 65°
2026-05-07 19:48 36.64815 -80.34069 9026 ft 272 kts 65°
2026-05-07 19:49 36.65613 -80.31934 9004 ft 272 kts 65°
2026-05-07 19:49 36.66400 -80.29800 9005 ft 271 kts 65°
2026-05-07 19:49 36.67187 -80.27668 9012 ft 271 kts 66°
2026-05-07 19:49 36.67977 -80.25536 9004 ft 271 kts 65°
2026-05-07 19:50 36.68768 -80.23401 9011 ft 272 kts 65°
2026-05-07 19:50 36.69557 -80.21262 9003 ft 272 kts 65°
2026-05-07 19:50 36.70301 -80.19107 8998 ft 270 kts 72°
2026-05-07 19:50 36.70627 -80.16815 9011 ft 269 kts 85°
2026-05-07 19:51 36.70832 -80.14489 9018 ft 270 kts 84°
2026-05-07 19:51 36.71051 -80.12192 9020 ft 271 kts 84°
2026-05-07 19:51 36.71186 -80.09863 9007 ft 269 kts 94°
2026-05-07 19:51 36.70829 -80.07589 9014 ft 267 kts 111°
2026-05-07 19:52 36.70002 -80.05549 9007 ft 263 kts 128°
2026-05-07 19:52 36.68781 -80.03885 9013 ft 259 kts 143°
2026-05-07 19:52 36.67274 -80.02704 9007 ft 254 kts 159°
2026-05-07 19:52 36.65602 -80.02067 9015 ft 250 kts 174°
2026-05-07 19:53 36.63882 -80.01901 9011 ft 248 kts 180°
2026-05-07 19:53 36.62159 -80.01778 9012 ft 248 kts 180°
2026-05-07 19:53 36.60438 -80.01648 9014 ft 248 kts 180°
2026-05-07 19:53 36.58717 -80.01523 9017 ft 248 kts 180°
2026-05-07 19:54 36.56997 -80.01400 9015 ft 247 kts 180°
2026-05-07 19:54 36.55282 -80.01274 9016 ft 247 kts 180°
2026-05-07 19:54 36.53570 -80.01152 9015 ft 246 kts 180°
2026-05-07 19:54 36.51859 -80.01030 9017 ft 246 kts 180°
2026-05-07 19:55 36.50150 -80.00905 9013 ft 246 kts 180°
2026-05-07 19:55 36.48443 -80.00782 9014 ft 246 kts 180°
2026-05-07 19:55 36.46736 -80.00658 9014 ft 246 kts 180°
2026-05-07 19:55 36.45029 -80.00536 9016 ft 246 kts 180°
2026-05-07 19:56 36.43348 -80.00416 9002 ft 246 kts 180°
2026-05-07 19:56 36.41620 -80.00291 9003 ft 245 kts 180°
2026-05-07 19:56 36.39914 -80.00168 9003 ft 246 kts 180°
2026-05-07 19:56 36.38232 -80.00048 9003 ft 245 kts 180°
2026-05-07 19:57 36.36527 -79.99924 9005 ft 245 kts 180°
2026-05-07 19:57 36.34826 -79.99802 8996 ft 245 kts 180°
2026-05-07 19:57 36.33129 -79.99681 8996 ft 244 kts 180°
2026-05-07 19:57 36.31434 -79.99558 9020 ft 244 kts 180°
2026-05-07 19:58 36.29739 -79.99437 9025 ft 244 kts 180°
2026-05-07 19:58 36.28061 -79.99316 9019 ft 244 kts 180°
2026-05-07 19:58 36.26368 -79.99195 9023 ft 244 kts 180°
2026-05-07 19:58 36.24675 -79.99075 9029 ft 244 kts 180°
2026-05-07 19:59 36.22977 -79.98953 9020 ft 244 kts 180°
2026-05-07 19:59 36.21279 -79.98831 8950 ft 247 kts 180°
2026-05-07 19:59 36.19545 -79.98708 8660 ft 251 kts 179°
2026-05-07 19:59 36.17791 -79.98583 8326 ft 254 kts 179°
2026-05-07 20:00 36.16027 -79.98456 7983 ft 254 kts 179°
2026-05-07 20:00 36.14262 -79.98329 7653 ft 253 kts 179°
2026-05-07 20:00 36.12503 -79.98203 7329 ft 252 kts 179°
2026-05-07 20:00 36.10907 -79.98085 7110 ft 213 kts 178°
2026-05-07 20:01 36.09497 -79.97985 6990 ft 204 kts 178°
2026-05-07 20:01 36.08114 -79.97889 6781 ft 195 kts 178°
2026-05-07 20:01 36.06740 -79.97792 6536 ft 193 kts 178°
2026-05-07 20:01 36.05526 -79.97878 6395 ft 170 kts 192°
2026-05-07 20:02 36.04453 -79.98365 6211 ft 165 kts 208°
2026-05-07 20:02 36.03545 -79.99193 5999 ft 161 kts 224°
2026-05-07 20:02 36.02809 -80.00263 5788 ft 164 kts 230°
2026-05-07 20:02 36.02088 -80.01325 5599 ft 162 kts 229°
2026-05-07 20:03 36.01354 -80.02406 5366 ft 161 kts 229°
2026-05-07 20:03 36.00619 -80.03496 5146 ft 163 kts 230°
2026-05-07 20:03 35.99891 -80.04576 4934 ft 166 kts 229°
2026-05-07 20:03 35.99150 -80.05676 4705 ft 165 kts 230°
2026-05-07 20:04 35.98549 -80.06883 4491 ft 166 kts 246°
2026-05-07 20:04 35.98210 -80.08251 4314 ft 166 kts 266°
2026-05-07 20:04 35.98552 -80.09565 4179 ft 164 kts 314°
2026-05-07 20:04 35.99514 -80.10219 3987 ft 156 kts 346°
2026-05-07 20:05 36.00470 -80.10893 3783 ft 161 kts 327°
2026-05-07 20:05 36.01069 -80.11430 3639 ft 160 kts 329°
2026-05-07 20:05 36.02214 -80.12438 3372 ft 144 kts 331°
2026-05-07 20:05 36.02933 -80.13067 3176 ft 112 kts 332°
2026-05-07 20:06 36.03588 -80.13625 3045 ft 120 kts 332°
2026-05-07 20:06 36.04242 -80.14202 2881 ft 108 kts 333°
2026-05-07 20:06 36.04866 -80.14746 2759 ft 115 kts 333°
2026-05-07 20:06 36.05529 -80.15325 2602 ft 111 kts 331°
2026-05-07 20:07 36.05937 -80.15688 2501 ft 106 kts 332°
2026-05-07 20:07 36.06582 -80.16243 2357 ft 117 kts 330°
2026-05-07 20:07 36.07222 -80.16805 2195 ft 108 kts 328°
2026-05-07 20:07 36.07852 -80.17355 2056 ft 116 kts 329°
2026-05-07 20:08 36.08495 -80.17917 1890 ft 110 kts 329°
2026-05-07 20:08 36.09113 -80.18462 1749 ft 112 kts 329°
2026-05-07 20:08 36.09766 -80.19031 1603 ft 115 kts 329°
2026-05-07 20:08 36.10407 -80.19592 1449 ft 112 kts 329°
2026-05-07 20:09 36.11016 -80.20123 1301 ft 99 kts 327°
2026-05-07 20:09 36.11543 -80.20595 1170 ft 90 kts 326°
2026-05-07 20:09 36.12073 -80.21054 1048 ft 93 kts 325°
2026-05-07 20:10 36.12976 -80.21839 937 ft 62 kts 324°
2026-05-07 20:10 36.13269 -80.22093 957 ft 33 kts 324°
2026-05-07 20:10 36.13385 -80.22194 963 ft 16 kts 325°
2026-05-07 20:10 36.13423 -80.22308 966 ft 14 kts 270°
2026-05-07 20:11 36.13493 -80.22413 967 ft 24 kts 313°
2026-05-07 20:11 36.13552 -80.22523 970 ft 6 kts 301°
2026-05-07 20:11 36.13573 -80.22566 970 ft 9 kts 301°
2026-05-07 20:11 36.13617 -80.22655 966 ft 18 kts 301°
2026-05-07 20:12 36.13676 -80.22734 970 ft 11 kts 343°
2026-05-07 20:12 36.13693 -80.22764 970 ft 0 kts 200°